| time (UTC) | temp F | wind direction | speed knots | gust knots | rain 1hr in | rain 24hr in | rain mn in | humidity % | barometer mb |
| 20260505212102 | 79 | 156 | 2.6 | 6.1 | 0.00 | 0.00 | 0.00 | 40 | 1013.2 |
| 20260505211550 | 79 | 177 | 2.6 | 7.8 | 0.00 | 0.00 | 0.00 | 41 | 1013.4 |
| 20260505211057 | 79 | 139 | 4.3 | 7.8 | 0.00 | 0.00 | 0.00 | 41 | 1013.5 |
| 20260505210548 | 79 | 204 | 2.6 | 7.8 | 0.00 | 0.00 | 0.00 | 40 | 1013.4 |
| 20260505210125 | 79 | 129 | 1.7 | 7.8 | 0.00 | 0.00 | 0.00 | 40 | 1013.4 |
| 20260505210018 | 78 | 106 | 0.9 | 7.8 | 0.00 | 0.00 | 0.00 | 40 | 1012.5 |
| 20260505205547 | 79 | 174 | 3.5 | 7.0 | 0.00 | 0.00 | 0.00 | 41 | 1013.5 |
| 20260505205056 | 79 | 174 | 2.6 | 5.2 | 0.00 | 0.00 | 0.00 | 40 | 1013.5 |
| 20260505204544 | 79 | 176 | 1.7 | 8.7 | 0.00 | 0.00 | 0.00 | 41 | 1013.7 |
| 20260505204056 | 79 | 155 | 1.7 | 8.7 | 0.00 | 0.00 | 0.00 | 41 | 1013.8 |
| 20260505203052 | 79 | 162 | 3.5 | 7.0 | 0.00 | 0.00 | 0.00 | 42 | 1014.0 |
| 20260505202556 | 79 | 198 | 4.3 | 8.7 | 0.00 | 0.00 | 0.00 | 41 | 1014.0 |
| 20260505202047 | 78 | 181 | 2.6 | 10.4 | 0.00 | 0.00 | 0.00 | 40 | 1014.0 |
| 20260505201555 | 78 | 259 | 4.3 | 10.4 | 0.00 | 0.00 | 0.00 | 41 | 1014.1 |
| 20260505201101 | 78 | 215 | 3.5 | 7.0 | 0.00 | 0.00 | 0.00 | 41 | 1014.1 |
| 20260505200547 | 78 | 169 | 2.6 | 6.1 | 0.00 | 0.00 | 0.00 | 41 | 1014.1 |
| 20260505200057 | 78 | 169 | 2.6 | 8.7 | 0.00 | 0.00 | 0.00 | 41 | 1014.2 |
| 20260505195601 | 78 | 206 | 4.3 | 8.7 | 0.00 | 0.00 | 0.00 | 40 | 1014.3 |
| 20260505195050 | 78 | 165 | 2.6 | 10.4 | 0.00 | 0.00 | 0.00 | 40 | 1014.4 |
| 20260505194602 | 78 | 195 | 3.5 | 10.4 | 0.00 | 0.00 | 0.00 | 40 | 1014.6 |
| 20260505194054 | 78 | 248 | 3.5 | 7.0 | 0.00 | 0.00 | 0.00 | 44 | 1014.6 |
| 20260505193600 | 77 | 151 | 2.6 | 7.8 | 0.00 | 0.00 | 0.00 | 43 | 1014.6 |
| 20260505193050 | 78 | 156 | 4.3 | 7.8 | 0.00 | 0.00 | 0.00 | 43 | 1014.6 |
| 20260505192554 | 78 | 183 | 2.6 | 7.8 | 0.00 | 0.00 | 0.00 | 42 | 1014.6 |
| 20260505191551 | 78 | 228 | 3.5 | 6.1 | 0.00 | 0.00 | 0.00 | 43 | 1014.7 |
| 20260505191058 | 78 | 198 | 0.9 | 7.8 | 0.00 | 0.00 | 0.00 | 44 | 1014.6 |
| 20260505190606 | 77 | 182 | 2.6 | 7.8 | 0.00 | 0.00 | 0.00 | 44 | 1014.9 |
| 20260505190047 | 78 | 127 | 3.5 | 7.8 | 0.00 | 0.00 | 0.00 | 42 | 1015.0 |
| 20260505185554 | 77 | 181 | 2.6 | 7.0 | 0.00 | 0.00 | 0.00 | 44 | 1014.9 |
| 20260505185103 | 77 | 78 | 1.7 | 7.0 | 0.00 | 0.00 | 0.00 | 45 | 1015.1 |
| 20260505184103 | 76 | 236 | 2.6 | 8.7 | 0.00 | 0.00 | 0.00 | 45 | 1015.2 |
| 20260505183552 | 76 | 190 | 0.9 | 7.0 | 0.00 | 0.00 | 0.00 | 46 | 1015.2 |
| 20260505182055 | 77 | 263 | 2.6 | 8.7 | 0.00 | 0.00 | 0.00 | 43 | 1015.4 |
| 20260505181606 | 77 | 184 | 3.5 | 8.7 | 0.00 | 0.00 | 0.00 | 45 | 1015.6 |
| 20260505181502 | 77 | 203 | 2.6 | 8.7 | 0.00 | 0.00 | 0.00 | 45 | 1014.8 |
| 20260505180602 | 77 | 175 | 4.3 | 7.8 | 0.00 | 0.00 | 0.00 | 44 | 1015.9 |
| 20260505180050 | 76 | 173 | 3.5 | 7.8 | 0.00 | 0.00 | 0.00 | 44 | 1015.9 |
| 20260505175550 | 76 | 203 | 2.6 | 7.8 | 0.00 | 0.00 | 0.00 | 45 | 1016.1 |
| 20260505175059 | 76 | 227 | 3.5 | 7.8 | 0.00 | 0.00 | 0.00 | 45 | 1016.2 |
| 20260505174547 | 76 | 139 | 3.5 | 7.0 | 0.00 | 0.00 | 0.00 | 46 | 1016.3 |
| 20260505174058 | 76 | 170 | 2.6 | 7.0 | 0.00 | 0.00 | 0.00 | 45 | 1016.4 |
| 20260505173548 | 76 | 112 | 4.3 | 7.8 | 0.00 | 0.00 | 0.00 | 44 | 1016.3 |
| 20260505173058 | 76 | 198 | 3.5 | 9.6 | 0.00 | 0.00 | 0.00 | 45 | 1016.3 |
| 20260505172544 | 76 | 212 | 4.3 | 9.6 | 0.00 | 0.00 | 0.00 | 43 | 1016.3 |
| 20260505171604 | 75 | 210 | 4.3 | 8.7 | 0.00 | 0.00 | 0.00 | 45 | 1016.3 |
| 20260505171055 | 75 | 240 | 2.6 | 9.6 | 0.00 | 0.00 | 0.00 | 48 | 1016.3 |
| 20260505170600 | 75 | 165 | 4.3 | 9.6 | 0.00 | 0.00 | 0.00 | 45 | 1016.4 |
| 20260505170119 | 76 | 117 | 3.5 | 9.6 | 0.00 | 0.00 | 0.00 | 47 | 1016.5 |
| 20260505165601 | 76 | 202 | 3.5 | 10.4 | 0.00 | 0.00 | 0.00 | 48 | 1016.5 |
| 20260505165053 | 76 | 236 | 3.5 | 10.4 | 0.00 | 0.00 | 0.00 | 47 | 1016.4 |
| 20260505164544 | 76 | 225 | 3.5 | 8.7 | 0.00 | 0.00 | 0.00 | 47 | 1016.4 |
| 20260505164052 | 75 | 186 | 1.7 | 9.6 | 0.00 | 0.00 | 0.00 | 49 | 1016.4 |
| 20260505163544 | 75 | 171 | 2.6 | 11.3 | 0.00 | 0.00 | 0.00 | 47 | 1016.4 |
| 20260505163055 | 74 | 237 | 3.5 | 11.3 | 0.00 | 0.00 | 0.00 | 48 | 1016.5 |
| 20260505162601 | 74 | 217 | 3.5 | 9.6 | 0.00 | 0.00 | 0.00 | 49 | 1016.4 |
| 20260505162050 | 74 | 185 | 2.6 | 7.8 | 0.00 | 0.00 | 0.00 | 50 | 1016.5 |
| 20260505161055 | 74 | 115 | 4.3 | 8.7 | 0.00 | 0.00 | 0.00 | 48 | 1016.6 |
| 20260505160549 | 74 | 113 | 3.5 | 7.0 | 0.00 | 0.00 | 0.00 | 52 | 1016.6 |
| 20260505153059 | 72 | 158 | 3.5 | 8.7 | 0.00 | 0.00 | 0.00 | 53 | 1017.1 |
| 20260505152546 | 73 | 224 | 4.3 | 7.0 | 0.00 | 0.00 | 0.00 | 56 | 1017.0 |
| 20260505151544 | 72 | 88 | 1.7 | 7.0 | 0.00 | 0.00 | 0.00 | 57 | 1016.9 |
| 20260505151054 | 72 | 151 | 2.6 | 7.8 | 0.00 | 0.00 | 0.00 | 57 | 1016.9 |
| 20260505150544 | 71 | 207 | 3.5 | 7.8 | 0.00 | 0.00 | 0.00 | 58 | 1016.9 |
| 20260505124602 | 57 | 30 | 0.0 | 0.9 | 0.00 | 0.00 | 0.00 | 84 | 1015.8 |
| 20260505123600 | 56 | 30 | 0.0 | 0.0 | 0.00 | 0.00 | 0.00 | 84 | 1015.6 |
| 20260505123104 | 56 | 30 | 0.0 | 0.0 | 0.00 | 0.00 | 0.00 | 85 | 1015.6 |
| 20260505122552 | 56 | 30 | 0.0 | 0.0 | 0.00 | 0.00 | 0.00 | 85 | 1015.6 |
| 20260505122103 | 55 | 30 | 0.0 | 0.9 | 0.00 | 0.00 | 0.00 | 85 | 1015.6 |
| 20260505121550 | 55 | 30 | 0.0 | 0.9 | 0.00 | 0.00 | 0.00 | 85 | 1015.8 |
| 20260505121057 | 54 | 149 | 0.0 | 0.9 | 0.00 | 0.00 | 0.00 | 86 | 1015.8 |
| 20260505120543 | 54 | 149 | 0.0 | 0.0 | 0.00 | 0.00 | 0.00 | 86 | 1015.7 |
| 20260505120053 | 53 | 149 | 0.0 | 0.0 | 0.00 | 0.00 | 0.00 | 86 | 1015.5 |
| 20260505115555 | 53 | 149 | 0.0 | 0.0 | 0.00 | 0.00 | 0.00 | 86 | 1015.5 |
| 20260505115102 | 53 | 149 | 0.0 | 0.0 | 0.00 | 0.00 | 0.00 | 86 | 1015.4 |
| 20260505114550 | 52 | 149 | 0.0 | 0.0 | 0.00 | 0.00 | 0.00 | 86 | 1015.2 |
| 20260505114059 | 52 | 149 | 0.0 | 0.0 | 0.00 | 0.00 | 0.00 | 86 | 1015.1 |
| 20260505113103 | 52 | 149 | 0.0 | 0.0 | 0.00 | 0.00 | 0.00 | 86 | 1015.1 |
| 20260505112550 | 51 | 149 | 0.0 | 0.0 | 0.00 | 0.00 | 0.00 | 86 | 1015.1 |
| 20260505111546 | 51 | 149 | 0.0 | 0.0 | 0.00 | 0.00 | 0.00 | 86 | 1015.2 |
| 20260505111057 | 51 | 149 | 0.0 | 0.9 | 0.00 | 0.00 | 0.00 | 87 | 1015.1 |
| 20260505110603 | 51 | 149 | 0.0 | 0.9 | 0.00 | 0.00 | 0.00 | 87 | 1015.1 |
| 20260505110517 | 50 | 149 | 0.0 | 0.9 | 0.00 | 0.00 | 0.00 | 87 | 1014.5 |
| 20260505110123 | 50 | 149 | 0.0 | 0.0 | 0.00 | 0.00 | 0.00 | 87 | 1015.2 |
| 20260505102056 | 51 | 149 | 0.0 | 0.9 | 0.00 | 0.00 | 0.00 | 85 | 1015.1 |
| 20260505101549 | 51 | 149 | 0.0 | 0.0 | 0.00 | 0.00 | 0.00 | 84 | 1015.0 |
| 20260505101059 | 51 | 149 | 0.0 | 0.0 | 0.00 | 0.00 | 0.00 | 84 | 1015.0 |
| 20260505100549 | 51 | 149 | 0.0 | 1.7 | 0.00 | 0.00 | 0.00 | 84 | 1015.1 |
| 20260505095547 | 51 | 149 | 0.9 | 1.7 | 0.00 | 0.00 | 0.00 | 84 | 1014.9 |
| 20260505095058 | 51 | 149 | 0.0 | 1.7 | 0.00 | 0.00 | 0.00 | 84 | 1014.9 |
| 20260505093549 | 52 | 149 | 0.0 | 1.7 | 0.00 | 0.00 | 0.00 | 83 | 1014.9 |
| 20260505092602 | 52 | 149 | 0.0 | 0.9 | 0.00 | 0.00 | 0.00 | 82 | 1015.1 |
| 20260505092051 | 52 | 149 | 0.0 | 1.7 | 0.00 | 0.00 | 0.00 | 82 | 1015.2 |
| 20260505091558 | 52 | 149 | 0.0 | 1.7 | 0.00 | 0.00 | 0.00 | 82 | 1015.2 |
| 20260505090601 | 53 | 149 | 0.0 | 1.7 | 0.00 | 0.00 | 0.00 | 81 | 1015.3 |
| 20260505090051 | 53 | 149 | 0.0 | 1.7 | 0.00 | 0.00 | 0.00 | 80 | 1015.4 |
| 20260505085558 | 53 | 149 | 0.0 | 0.9 | 0.00 | 0.00 | 0.00 | 81 | 1015.4 |
| 20260505085047 | 53 | 149 | 0.0 | 0.9 | 0.00 | 0.00 | 0.00 | 80 | 1015.4 |
| 20260505084556 | 53 | 149 | 0.0 | 0.9 | 0.00 | 0.00 | 0.00 | 79 | 1015.5 |
| 20260505084103 | 54 | 149 | 0.0 | 1.7 | 0.00 | 0.00 | 0.00 | 79 | 1015.4 |
| 20260505082553 | 54 | 149 | 0.9 | 1.7 | 0.00 | 0.00 | 0.00 | 79 | 1015.3 |
| 20260505082101 | 54 | 149 | 0.0 | 1.7 | 0.00 | 0.00 | 0.00 | 78 | 1015.2 |
| 20260505081102 | 54 | 149 | 0.0 | 2.6 | 0.00 | 0.00 | 0.00 | 78 | 1015.2 |
| 20260505080553 | 54 | 150 | 0.0 | 2.6 | 0.00 | 0.00 | 0.00 | 79 | 1015.3 |
| 20260505075549 | 53 | 123 | 0.0 | 0.0 | 0.00 | 0.00 | 0.00 | 81 | 1015.2 |
| 20260505075059 | 53 | 123 | 0.0 | 0.0 | 0.00 | 0.00 | 0.00 | 81 | 1015.2 |
| 20260505074549 | 53 | 122 | 0.0 | 0.0 | 0.00 | 0.00 | 0.00 | 81 | 1015.1 |
| 20260505074100 | 53 | 122 | 0.0 | 0.0 | 0.00 | 0.00 | 0.00 | 81 | 1015.0 |
| 20260505073550 | 53 | 122 | 0.0 | 0.0 | 0.00 | 0.00 | 0.00 | 80 | 1015.1 |
| 20260505073059 | 53 | 122 | 0.0 | 0.0 | 0.00 | 0.00 | 0.00 | 80 | 1015.1 |
| 20260505072603 | 53 | 122 | 0.0 | 0.0 | 0.00 | 0.00 | 0.00 | 80 | 1015.1 |
| 20260505072047 | 54 | 122 | 0.0 | 0.0 | 0.00 | 0.00 | 0.00 | 80 | 1015.1 |
| 20260505071601 | 54 | 122 | 0.0 | 0.0 | 0.00 | 0.00 | 0.00 | 80 | 1015.1 |
| 20260505071049 | 54 | 122 | 0.0 | 0.0 | 0.00 | 0.00 | 0.00 | 80 | 1015.0 |
| 20260505070558 | 54 | 122 | 0.0 | 0.0 | 0.00 | 0.00 | 0.00 | 79 | 1015.0 |
| 20260505070105 | 54 | 122 | 0.0 | 0.0 | 0.00 | 0.00 | 0.00 | 79 | 1014.9 |
| 20260505065056 | 55 | 122 | 0.0 | 0.0 | 0.00 | 0.00 | 0.00 | 78 | 1015.0 |
| 20260505064549 | 55 | 122 | 0.0 | 0.0 | 0.00 | 0.00 | 0.00 | 77 | 1014.9 |
| 20260505064100 | 56 | 122 | 0.0 | 0.9 | 0.00 | 0.00 | 0.00 | 76 | 1014.9 |
| 20260505063102 | 57 | 122 | 0.0 | 1.7 | 0.00 | 0.00 | 0.00 | 72 | 1015.0 |
| 20260505062548 | 58 | 122 | 0.0 | 0.0 | 0.00 | 0.00 | 0.00 | 71 | 1015.0 |
| 20260505062051 | 58 | 122 | 0.0 | 0.0 | 0.00 | 0.00 | 0.00 | 67 | 1015.0 |
| 20260505061602 | 57 | 122 | 0.0 | 0.0 | 0.00 | 0.00 | 0.00 | 69 | 1015.1 |
| 20260505061051 | 56 | 122 | 0.0 | 0.0 | 0.00 | 0.00 | 0.00 | 74 | 1015.1 |
| 20260505060543 | 57 | 122 | 0.0 | 0.0 | 0.00 | 0.00 | 0.00 | 73 | 1015.2 |
| 20260505060054 | 58 | 122 | 0.0 | 0.0 | 0.00 | 0.00 | 0.00 | 71 | 1015.2 |
| 20260505055559 | 58 | 119 | 0.0 | 0.0 | 0.00 | 0.00 | 0.00 | 68 | 1015.2 |
| 20260505055049 | 57 | 119 | 0.0 | 0.0 | 0.00 | 0.00 | 0.00 | 70 | 1015.2 |
| 20260505054556 | 57 | 110 | 0.0 | 0.0 | 0.00 | 0.00 | 0.00 | 73 | 1015.2 |
| 20260505054101 | 56 | 110 | 0.0 | 0.0 | 0.00 | 0.00 | 0.00 | 74 | 1015.2 |
| 20260505053552 | 57 | 110 | 0.0 | 0.0 | 0.00 | 0.00 | 0.00 | 75 | 1015.3 |
| 20260505053100 | 57 | 110 | 0.0 | 0.0 | 0.00 | 0.00 | 0.00 | 74 | 1015.3 |
| 20260505052550 | 57 | 95 | 0.0 | 0.0 | 0.00 | 0.00 | 0.00 | 73 | 1015.3 |
| 20260505052056 | 56 | 95 | 0.0 | 0.0 | 0.00 | 0.00 | 0.00 | 76 | 1015.3 |
| 20260505051547 | 56 | 95 | 0.0 | 0.0 | 0.00 | 0.00 | 0.00 | 75 | 1015.3 |
| 20260505051100 | 57 | 95 | 0.0 | 0.0 | 0.00 | 0.00 | 0.00 | 75 | 1015.2 |
| 20260505050554 | 57 | 95 | 0.0 | 0.0 | 0.00 | 0.00 | 0.00 | 73 | 1015.2 |
| 20260505041559 | 59 | 95 | 0.0 | 0.0 | 0.00 | 0.00 | 0.00 | 69 | 1015.2 |
| 20260505041047 | 60 | 95 | 0.0 | 0.0 | 0.00 | 0.00 | 0.00 | 66 | 1015.3 |
| 20260505040557 | 60 | 95 | 0.0 | 0.0 | 0.00 | 0.00 | 0.00 | 66 | 1015.3 |
| 20260505040135 | 60 | 95 | 0.0 | 0.0 | 0.00 | 0.00 | 0.00 | 66 | 1015.2 |
| 20260505035549 | 60 | 95 | 0.0 | 0.0 | 0.00 | 0.00 | 0.00 | 66 | 1015.2 |
| 20260505035056 | 60 | 95 | 0.0 | 0.0 | 0.00 | 0.00 | 0.00 | 66 | 1015.2 |
| 20260505034605 | 61 | 95 | 0.0 | 0.0 | 0.00 | 0.00 | 0.00 | 66 | 1015.2 |
| 20260505034052 | 61 | 95 | 0.0 | 0.0 | 0.00 | 0.00 | 0.00 | 65 | 1015.3 |
| 20260505033601 | 61 | 95 | 0.0 | 0.0 | 0.00 | 0.00 | 0.00 | 63 | 1015.4 |
| 20260505033048 | 61 | 95 | 0.0 | 0.0 | 0.00 | 0.00 | 0.00 | 65 | 1015.4 |
| 20260505032552 | 61 | 95 | 0.0 | 0.0 | 0.00 | 0.00 | 0.00 | 65 | 1015.4 |
| 20260505032101 | 61 | 95 | 0.0 | 0.0 | 0.00 | 0.00 | 0.00 | 64 | 1015.4 |
| 20260505031551 | 62 | 95 | 0.0 | 0.0 | 0.00 | 0.00 | 0.00 | 63 | 1015.3 |
| 20260505030555 | 62 | 95 | 0.0 | 0.9 | 0.00 | 0.00 | 0.00 | 64 | 1015.4 |
| 20260505030507 | 61 | 95 | 0.0 | 0.9 | 0.00 | 0.00 | 0.00 | 64 | 1014.9 |
| 20260505030133 | 62 | 95 | 0.0 | 0.9 | 0.00 | 0.00 | 0.00 | 63 | 1015.4 |
| 20260505030034 | 61 | 95 | 0.0 | 0.9 | 0.00 | 0.00 | 0.00 | 63 | 1014.9 |
| 20260505025553 | 62 | 95 | 0.0 | 0.9 | 0.00 | 0.00 | 0.00 | 62 | 1015.4 |
| 20260505025055 | 63 | 95 | 0.0 | 0.9 | 0.00 | 0.00 | 0.00 | 62 | 1015.3 |
| 20260505024548 | 64 | 95 | 0.0 | 0.9 | 0.00 | 0.00 | 0.00 | 61 | 1015.4 |
| 20260505023548 | 65 | 95 | 0.0 | 0.9 | 0.00 | 0.00 | 0.00 | 58 | 1015.4 |
| 20260505023057 | 65 | 95 | 0.0 | 0.9 | 0.00 | 0.00 | 0.00 | 58 | 1015.3 |
| 20260505022602 | 65 | 95 | 0.0 | 1.7 | 0.00 | 0.00 | 0.00 | 57 | 1015.2 |
| 20260505022052 | 65 | 95 | 0.0 | 1.7 | 0.00 | 0.00 | 0.00 | 57 | 1015.2 |
| 20260505021558 | 65 | 95 | 0.0 | 0.9 | 0.00 | 0.00 | 0.00 | 57 | 1015.3 |
| 20260505020559 | 65 | 95 | 0.0 | 1.7 | 0.00 | 0.00 | 0.00 | 57 | 1015.3 |
| 20260505020052 | 65 | 95 | 0.0 | 1.7 | 0.00 | 0.00 | 0.00 | 58 | 1015.2 |
| 20260505015555 | 64 | 179 | 0.0 | 1.7 | 0.00 | 0.00 | 0.00 | 59 | 1015.2 |
| 20260505015044 | 64 | 179 | 0.9 | 1.7 | 0.00 | 0.00 | 0.00 | 60 | 1015.0 |
| 20260505014558 | 64 | 179 | 0.0 | 0.0 | 0.00 | 0.00 | 0.00 | 59 | 1015.0 |
| 20260505014046 | 65 | 179 | 0.0 | 0.0 | 0.00 | 0.00 | 0.00 | 58 | 1015.0 |
| 20260505013552 | 65 | 179 | 0.0 | 0.0 | 0.00 | 0.00 | 0.00 | 57 | 1015.0 |
| 20260505013100 | 65 | 179 | 0.0 | 0.0 | 0.00 | 0.00 | 0.00 | 56 | 1014.9 |
| 20260505012545 | 66 | 179 | 0.0 | 0.0 | 0.00 | 0.00 | 0.00 | 55 | 1014.9 |
| 20260505012055 | 67 | 179 | 0.0 | 0.0 | 0.00 | 0.00 | 0.00 | 53 | 1014.9 |
| 20260505011546 | 67 | 179 | 0.0 | 0.0 | 0.00 | 0.00 | 0.00 | 53 | 1014.8 |
| 20260505010550 | 69 | 179 | 0.0 | 0.0 | 0.00 | 0.00 | 0.00 | 49 | 1014.7 |
| 20260505010056 | 70 | 179 | 0.0 | 0.9 | 0.00 | 0.00 | 0.00 | 48 | 1014.6 |
| 20260505005558 | 70 | 179 | 0.0 | 0.9 | 0.00 | 0.00 | 0.00 | 47 | 1014.7 |
| 20260505005048 | 70 | 179 | 0.0 | 2.6 | 0.00 | 0.00 | 0.00 | 46 | 1014.6 |
| 20260505004558 | 71 | 179 | 0.9 | 3.5 | 0.00 | 0.00 | 0.00 | 46 | 1014.6 |
| 20260505003558 | 71 | 175 | 1.7 | 5.2 | 0.00 | 0.00 | 0.00 | 45 | 1014.4 |
| 20260505002550 | 72 | 167 | 0.0 | 0.9 | 0.00 | 0.00 | 0.00 | 44 | 1014.3 |
| 20260505002059 | 73 | 167 | 0.0 | 1.7 | 0.00 | 0.00 | 0.00 | 44 | 1014.2 |
| 20260505001607 | 73 | 167 | 0.0 | 1.7 | 0.00 | 0.00 | 0.00 | 43 | 1014.3 |
| 20260505001053 | 73 | 166 | 0.9 | 1.7 | 0.00 | 0.00 | 0.00 | 44 | 1014.2 |
| 20260505000559 | 73 | 166 | 0.9 | 1.7 | 0.00 | 0.00 | 0.00 | 43 | 1014.2 |
| 20260504235558 | 74 | 180 | 0.0 | 2.6 | 0.00 | 0.00 | 0.00 | 41 | 1014.1 |
| 20260504235048 | 74 | 180 | 0.9 | 2.6 | 0.00 | 0.00 | 0.00 | 41 | 1014.1 |
| 20260504234552 | 74 | 143 | 0.9 | 2.6 | 0.00 | 0.00 | 0.00 | 41 | 1014.1 |
| 20260504234102 | 74 | 195 | 0.0 | 3.5 | 0.00 | 0.00 | 0.00 | 41 | 1014.1 |
| 20260504233553 | 75 | 184 | 0.9 | 4.3 | 0.00 | 0.00 | 0.00 | 40 | 1014.2 |
| 20260504233101 | 75 | 133 | 0.0 | 4.3 | 0.00 | 0.00 | 0.00 | 40 | 1014.2 |
| 20260504232545 | 75 | 131 | 0.9 | 4.3 | 0.00 | 0.00 | 0.00 | 39 | 1014.2 |
| 20260504232051 | 75 | 109 | 0.0 | 5.2 | 0.00 | 0.00 | 0.00 | 39 | 1014.2 |
| 20260504230602 | 75 | 188 | 1.7 | 4.3 | 0.00 | 0.00 | 0.00 | 39 | 1014.4 |
| 20260504230051 | 75 | 122 | 0.9 | 4.3 | 0.00 | 0.00 | 0.00 | 39 | 1014.4 |
| 20260504225555 | 75 | 195 | 1.7 | 4.3 | 0.00 | 0.00 | 0.00 | 38 | 1014.3 |
| 20260504225100 | 76 | 228 | 0.9 | 4.3 | 0.00 | 0.00 | 0.00 | 38 | 1014.3 |
| 20260504224547 | 76 | 144 | 0.9 | 7.0 | 0.00 | 0.00 | 0.00 | 39 | 1014.4 |
| 20260504224059 | 75 | 132 | 2.6 | 7.0 | 0.00 | 0.00 | 0.00 | 39 | 1014.4 |
| 20260504223546 | 76 | 234 | 1.7 | 4.3 | 0.00 | 0.00 | 0.00 | 38 | 1014.3 |
| 20260504223100 | 76 | 113 | 0.9 | 4.3 | 0.00 | 0.00 | 0.00 | 37 | 1014.4 |
| 20260504222058 | 76 | 194 | 2.6 | 4.3 | 0.00 | 0.00 | 0.00 | 38 | 1014.4 |
| 20260504221544 | 76 | 141 | 1.7 | 5.2 | 0.00 | 0.00 | 0.00 | 39 | 1014.4 |
| 20260504221057 | 76 | 120 | 1.7 | 5.2 | 0.00 | 0.00 | 0.00 | 38 | 1014.4 |
| 20260504220604 | 76 | 149 | 1.7 | 4.3 | 0.00 | 0.00 | 0.00 | 41 | 1014.4 |
| 20260504220057 | 76 | 188 | 1.7 | 4.3 | 0.00 | 0.00 | 0.00 | 38 | 1014.4 |
| 20260504215602 | 76 | 186 | 1.7 | 4.3 | 0.00 | 0.00 | 0.00 | 40 | 1014.4 |
| 20260504215052 | 76 | 105 | 0.9 | 7.0 | 0.00 | 0.00 | 0.00 | 38 | 1014.3 |
| 20260504214552 | 76 | 145 | 0.9 | 7.0 | 0.00 | 0.00 | 0.00 | 38 | 1014.2 |
| 20260504214100 | 76 | 188 | 1.7 | 5.2 | 0.00 | 0.00 | 0.00 | 37 | 1014.3 |
| 20260504213547 | 76 | 217 | 3.5 | 5.2 | 0.00 | 0.00 | 0.00 | 37 | 1014.3 |
| 20260504213054 | 75 | 131 | 2.6 | 5.2 | 0.00 | 0.00 | 0.00 | 37 | 1014.3 |